Location: DARK SKY Beskydy - Park tmavé oblohy, www.darkskybeskydy.cz
(49.4926°N, 18.5016°E)
Time: 11:11:30
(UTC+02:00)

Vanguard 1 - Pass Details

Date: 25 February 2024
Orbit: 653 x 3825 km, 34.2° (Epoch: 12 April)

Event Time Altitude Azimuth Distance (km) Brightness Sun altitude
Rises 03:15:40 0° 278° (W) 7,849 - -32.9°
Reaches altitude 10° 03:24:53 10° 260° (W) 6,930 - -31.5°
Maximum altitude 03:35:00 15° 234° (SW) 6,309 - -30.0°
Drops below altitude 10° 03:44:21 10° 207° (SSW) 6,280 - -28.6°
Exits shadow 03:45:55 - 202° (SSW) 6,335 13.8 -28.4°
Sets 03:52:02 0° 186° (S) 6,720 14.1 -27.4°
